Regional Weather Roundup
Issued by NWS

Home | Current Version | Previous Version | Graphics & Text | Print | Product List | Glossary On
Versions: 1 2 3 4 5 6 7 8 9 10 11 12 13 14 15 16 17 18 19 20 21 22 23 24 25 26 27 28 29 30 31 32 33 34 35 36 37 38 39 40 41 42 43 44 45 46 47 48 49 50
000
ASUS43 KBIS 170702
RWRND

NORTH DAKOTA REGIONAL WEATHER ROUNDUP
NATIONAL WEATHER SERVICE BISMARCK ND
100 AM CST FRI NOV 17 2017

NOTE: "FAIR" INDICATES FEW OR NO CLOUDS BELOW 12,000 FEET WITH NO
SIGNIFICANT WEATHER AND/OR OBSTRUCTIONS TO VISIBILITY.


NDZ001>003-009>011-017-170800-
NORTHWEST NORTH DAKOTA

CITY           SKY/WX    TMP DP  RH WIND       PRES   REMARKS
WILLISTON      PTCLDY    28  24  85 NW8       29.62R WCI  20
MINOT          CLOUDY    40  28  62 W16       29.52S
$$

NDZ018>021-031>035-040>046-170800-
SOUTHWEST NORTH DAKOTA

CITY           SKY/WX    TMP DP  RH WIND       PRES   REMARKS
BISMARCK       CLOUDY    29  27  92 CALM      29.58F
DICKINSON      CLOUDY    37  30  75 W8        29.58S
GARRISON         N/A     39  31  72 W10       29.54F
HETTINGER ARPT CLOUDY    31  24  75 NW6       29.62R
$$

NDZ004>008-012>016-024-026-027-054-170800-
NORTHEAST NORTH DAKOTA

CITY           SKY/WX    TMP DP  RH WIND       PRES   REMARKS
GRAND FORKS    CLOUDY    33  29  85 S17       29.64R
GRND FRKS AFB  CLOUDY    31  28  86 S13       29.62S
DEVILS LAKE    LGT RAIN  33  29  85 S13       29.55F
$$

NDZ022-023-025-028>030-036>039-047>053-170800-
SOUTHEAST NORTH DAKOTA

CITY           SKY/WX    TMP DP  RH WIND       PRES   REMARKS
FARGO          CLOUDY    35  27  72 S18G35    29.63R
JAMESTOWN      CLOUDY    25  23  92 E3        29.58F
$$





USA.gov is the U.S. government's official web portal to all federal, state and local government web resources and services.